Location: *
(33.6842°N, 117.7925°W)
Time: 11:19:31
(UTC+00:00)

Cosmos 1626 Rocket - Pass Details

Date: 21 October 2019
Orbit: 604 x 630 km, 82.5° (Epoch: 20 November)

Event Time Altitude Azimuth Distance (km) Brightness Sun altitude
Rises 13:00:10 0° 181° (S) 2,842 7.0 -13.3°
Reaches altitude 10° 13:02:22 10° 179° (S) 1,942 6.2 -12.8°
Maximum altitude 13:06:38 74° 95° (E) 630 3.7 -11.9°
Drops below altitude 10° 13:10:57 10° 10° (N) 1,957 6.2 -11.1°
Sets 13:13:11 0° 9° (N) 2,867 7.0 -10.6°
